Location: ????????
(60.4333°N, 46.4710°E)
Time: 02:39:53
(UTC+00:00)

SL-24 DEB - Pass Details

Date: 25 November 2020
Orbit: 664 x 701 km, 92.0° (Epoch: 19 January)

Event Time Altitude Azimuth Distance (km) Brightness Sun altitude
Rises 14:57:01 0° 6° (N) 3,106 7.5 -20.0°
Reaches altitude 10° 14:59:22 10° 10° (N) 2,181 6.7 -20.3°
Maximum altitude 15:04:06 55° 89° (E) 842 4.3 -20.9°
Drops below altitude 10° 15:08:46 10° 168° (SSE) 2,151 6.7 -21.4°
Sets 15:11:04 0° 172° (S) 3,058 7.6 -21.7°
